Regional Weather Roundup
Issued by NWS Green Bay, WI

Home | Current Version | Previous Version | Graphics & Text | Print | Product List | Glossary Off
Versions: 1 2 3 4 5 6 7 8 9 10 11 12 13 14 15 16 17 18 19 20 21 22 23 24 25 26 27 28 29 30 31 32 33 34 35 36 37 38 39 40 41 42 43 44 45 46 47 48 49 50

000
ASUS43 KGRB 301910
RWRGRB

NORTH-CENTRAL AND NORTHEAST WISCONSIN REGIONAL WEATHER ROUNDUP
NATIONAL WEATHER SERVICE GREEN BAY WI
100 PM CST FRI JAN 30 2015

WIZ005-009-010>012-018-019-302000-
NORTH CENTRAL WISCONSIN

CITY           SKY/WX    TMP DP  RH WIND       PRES   REMARKS
IRONWOOD       CLOUDY    16   3  57 SW7       30.34F WCI   6
MANITOWISH WTR PTSUNNY   14   2  59 SW8       30.35F WCI   2
ARBOR VITAE    MOSUNNY   17   5  60 S8        30.34F WCI   6
EAGLE RIVER    SUNNY     15   1  54 W3        30.34F
LAND O LAKES   SUNNY     17   4  56 SW3       30.34F
RHINELANDER    MOSUNNY   15   4  61 W6        30.36F WCI   6
PHILLIPS       PTSUNNY   15   3  60 SW7       30.37F WCI   5
ANTIGO         PTSUNNY   14   5  67 SW6       30.38F WCI   5
TOMAHAWK       PTSUNNY   16   3  56 CALM      30.38F
MERRILL        PTSUNNY   16   4  61 SW6       30.39F WCI   7
$$

WIZ013-073-302000-
NORTHEAST WISCONSIN

CITY           SKY/WX    TMP DP  RH WIND       PRES   REMARKS
IRON MOUNTAIN  MOSUNNY   15   2  56 W5        30.38F WCI   8
MARINETTE      MOSUNNY   18   1  49 CALM      30.46F
OCONTO         MOSUNNY   19   5  53 MISG      30.46F
$$

WIZ017-030-035>037-045-302000-
CENTRAL WISCONSIN

CITY           SKY/WX    TMP DP  RH WIND       PRES   REMARKS
MEDFORD        PTSUNNY   14   4  66 SW7       30.39F WCI   4
WAUSAU         PTSUNNY   16   4  59 SW7       30.40F WCI   6
MOSINEE        SUNNY     16   7  67 MISG      30.42F
MARSHFIELD     PTSUNNY   16   5  62 W7        30.42F WCI   6
WISC RAPIDS    PTSUNNY   19   4  51 SW8       30.46F WCI   9
STEVENS POINT  MOSUNNY   17   4  56 W6        30.43F WCI   8
WAUPACA        PTSUNNY   24   7  48 SW7       30.46F
SHAWANO        PTSUNNY   21   6  52 S5        30.46F
CLINTONVILLE   CLOUDY    19   5  53 SW3       30.46F
$$

WIZ038-039-048-051-302000-
FOX VALLEY

CITY           SKY/WX    TMP DP  RH WIND       PRES   REMARKS
NWS GREEN BAY  PTSUNNY   19   7  59 W3        30.47F
APPLETON       PTSUNNY   19   5  53 VRB5      30.46F
OSHKOSH        MOSUNNY   19   7  59 CALM      30.46F
FOND DU LAC    MOSUNNY   22   6  50 CALM      30.46F
$$

WIZ022-050-052-302000-
EAST CENTRAL WISCONSIN

CITY           SKY/WX    TMP DP  RH WIND       PRES   REMARKS
STURGEON BAY   MOSUNNY   16   1  53 W3        30.48F
MANITOWOC      MOSUNNY   25  10  53 W5        30.48F
SHEBOYGAN      PTSUNNY   22   8  55 VRB3      30.47F
$$

LMZ563-521-522-541>543-302000-
LAKESHORE

STATION/POSITION TIME  TEMP    WIND        PRES    VSBY  WAVE
                       AIR SEA DIR/SP/G                  HT/PER
                 (UTC) (F)     (DEG/KT/KT) (MB)    (MI)  (FT/S)
SHEBOYGAN LKSHOR 1900   19      60/  3/  4 1033.5F
KEWAUNEE LKSHORE 1900   17     340/  5/  9 1031.2F
NORTHPORT PIER   1900   15     280/  6/ 11 1031.8F
SISTER BAY LKSHO 1800   23     310/  8/  9   N/A
STURGEON BAY CG  1900   19     310/  7     1036.1      6   1
CHAMBERS ISLAND  1900   16      20/  4/  4 1031.8F
MENOMINEE LKSHOR 1900   15     100/  6     1032.2F
$$


USA.gov is the U.S. government's official web portal to all federal, state and local government web resources and services.